Time,TemperatureF,DewpointF,PressureIn,WindDirection,WindDirectionDegrees,WindSpeedMPH,WindSpeedGustMPH,Humidity,HourlyPrecipIn,Conditions,Clouds,dailyrainin,SolarRadiationWatts/m^2,SoftwareType,DateUTC
2013-04-14 00:22:00,29.0,28.0,-100.00,SSW,196,8.0,17.0,96,0.00,,,0.00,0.000000,,2013-04-14 06:22:00,
2013-04-14 00:32:00,29.0,28.0,-100.00,SSW,196,8.0,17.0,96,0.00,,,0.00,0.000000,,2013-04-14 06:32:00,
2013-04-14 00:42:00,29.0,28.0,-100.00,SSW,196,8.0,17.0,96,0.00,,,0.00,0.000000,,2013-04-14 06:42:00,
2013-04-14 00:52:00,29.0,28.0,-100.00,SSW,196,8.0,17.0,96,0.00,,,0.00,0.000000,,2013-04-14 06:52:00,
2013-04-14 01:12:00,27.0,26.0,-100.00,ENE,62,4.0,16.0,95,0.00,,,0.00,0.000000,,2013-04-14 07:12:00,
2013-04-14 01:22:00,27.0,26.0,-100.00,ENE,62,4.0,16.0,95,0.00,,,0.00,0.000000,,2013-04-14 07:22:00,
2013-04-14 01:32:00,27.0,26.0,-100.00,ENE,62,4.0,16.0,95,0.00,,,0.00,0.000000,,2013-04-14 07:32:00,
2013-04-14 01:42:00,27.0,26.0,-100.00,ENE,62,4.0,16.0,95,0.00,,,0.00,0.000000,,2013-04-14 07:42:00,
2013-04-14 01:52:00,27.0,26.0,-100.00,ENE,62,4.0,16.0,95,0.00,,,0.00,0.000000,,2013-04-14 07:52:00,
2013-04-14 02:22:00,23.0,21.0,-100.00,ENE,63,4.0,13.0,92,0.00,,,0.00,0.000000,,2013-04-14 08:22:00,
2013-04-14 02:32:00,23.0,21.0,-100.00,ENE,63,4.0,13.0,92,0.00,,,0.00,0.000000,,2013-04-14 08:32:00,
2013-04-14 02:42:00,23.0,21.0,-100.00,ENE,63,4.0,13.0,92,0.00,,,0.00,0.000000,,2013-04-14 08:42:00,
2013-04-14 02:52:00,23.0,21.0,-100.00,ENE,63,4.0,13.0,92,0.00,,,0.00,0.000000,,2013-04-14 08:52:00,
2013-04-14 03:12:00,23.0,21.0,-100.00,SSE,156,5.0,9.0,90,0.00,,,0.00,0.000000,,2013-04-14 09:12:00,
2013-04-14 03:22:00,23.0,21.0,-100.00,SSE,156,5.0,9.0,90,0.00,,,0.00,0.000000,,2013-04-14 09:22:00,
2013-04-14 03:33:00,23.0,21.0,-100.00,SSE,156,5.0,9.0,90,0.00,,,0.00,0.000000,,2013-04-14 09:33:00,
2013-04-14 03:42:00,23.0,21.0,-100.00,SSE,156,5.0,9.0,90,0.00,,,0.00,0.000000,,2013-04-14 09:42:00,
2013-04-14 03:53:00,23.0,21.0,-100.00,SSE,156,5.0,9.0,90,0.00,,,0.00,0.000000,,2013-04-14 09:53:00,
2013-04-14 04:23:00,22.0,20.0,-100.00,SSW,205,5.0,12.0,91,0.00,,,0.00,0.000000,,2013-04-14 10:23:00,
2013-04-14 04:33:00,22.0,20.0,-100.00,SSW,205,5.0,12.0,91,0.00,,,0.00,0.000000,,2013-04-14 10:33:00,
2013-04-14 04:42:00,22.0,20.0,-100.00,SSW,205,5.0,12.0,91,0.00,,,0.00,0.000000,,2013-04-14 10:42:00,
2013-04-14 04:52:00,22.0,20.0,-100.00,SSW,205,5.0,12.0,91,0.00,,,0.00,0.000000,,2013-04-14 10:52:00,
2013-04-14 05:12:00,21.0,18.0,-100.00,NW,313,1.0,7.0,89,0.00,,,0.00,0.000000,,2013-04-14 11:12:00,
2013-04-14 05:22:00,21.0,18.0,-100.00,NW,313,1.0,7.0,89,0.00,,,0.00,0.000000,,2013-04-14 11:22:00,
2013-04-14 05:32:00,21.0,18.0,-100.00,NW,313,1.0,7.0,89,0.00,,,0.00,0.000000,,2013-04-14 11:32:00,
2013-04-14 05:42:00,21.0,18.0,-100.00,NW,313,1.0,7.0,89,0.00,,,0.00,0.000000,,2013-04-14 11:42:00,
2013-04-14 05:52:00,21.0,18.0,-100.00,NW,313,1.0,7.0,89,0.00,,,0.00,0.000000,,2013-04-14 11:52:00,
2013-04-14 06:22:00,20.0,17.0,-100.00,SW,228,4.0,7.0,89,0.00,,,0.00,0.000000,,2013-04-14 12:22:00,
2013-04-14 06:32:00,20.0,17.0,-100.00,SW,228,4.0,7.0,89,0.00,,,0.00,0.000000,,2013-04-14 12:32:00,
2013-04-14 06:42:00,20.0,17.0,-100.00,SW,228,4.0,7.0,89,0.00,,,0.00,0.000000,,2013-04-14 12:42:00,
2013-04-14 06:51:00,20.0,17.0,-100.00,SW,228,4.0,7.0,89,0.00,,,0.00,0.000000,,2013-04-14 12:51:00,
2013-04-14 07:22:00,19.0,16.0,-100.00,WNW,289,5.0,12.0,86,0.00,,,0.00,2.000000,,2013-04-14 13:22:00,
2013-04-14 07:32:00,19.0,16.0,-100.00,WNW,289,5.0,12.0,86,0.00,,,0.00,2.000000,,2013-04-14 13:32:00,
2013-04-14 07:42:00,19.0,16.0,-100.00,WNW,289,5.0,12.0,86,0.00,,,0.00,2.000000,,2013-04-14 13:42:00,
2013-04-14 07:52:00,19.0,16.0,-100.00,WNW,289,5.0,12.0,86,0.00,,,0.00,2.000000,,2013-04-14 13:52:00,
2013-04-14 08:12:00,19.0,14.0,-100.00,WNW,293,5.0,15.0,80,0.00,,,0.00,24.000000,,2013-04-14 14:12:00,
2013-04-14 08:22:00,19.0,14.0,-100.00,WNW,293,5.0,15.0,80,0.00,,,0.00,24.000000,,2013-04-14 14:22:00,
2013-04-14 08:32:00,19.0,14.0,-100.00,WNW,293,5.0,15.0,80,0.00,,,0.00,24.000000,,2013-04-14 14:32:00,
2013-04-14 08:42:00,19.0,14.0,-100.00,WNW,293,5.0,15.0,80,0.00,,,0.00,24.000000,,2013-04-14 14:42:00,
2013-04-14 08:52:00,19.0,14.0,-100.00,WNW,293,5.0,15.0,80,0.00,,,0.00,24.000000,,2013-04-14 14:52:00,
2013-04-14 09:12:00,20.0,10.0,-100.00,WSW,248,11.0,21.0,64,0.00,,,0.00,97.000000,,2013-04-14 15:12:00,
2013-04-14 09:22:00,20.0,10.0,-100.00,WSW,248,11.0,21.0,64,0.00,,,0.00,97.000000,,2013-04-14 15:22:00,
2013-04-14 09:33:00,20.0,10.0,-100.00,WSW,248,11.0,21.0,64,0.00,,,0.00,97.000000,,2013-04-14 15:33:00,
2013-04-14 09:43:00,20.0,10.0,-100.00,WSW,248,11.0,21.0,64,0.00,,,0.00,97.000000,,2013-04-14 15:43:00,
2013-04-14 09:52:00,20.0,10.0,-100.00,WSW,248,11.0,21.0,64,0.00,,,0.00,97.000000,,2013-04-14 15:52:00,
2013-04-14 10:13:00,21.0,9.0,-100.00,SW,232,9.0,18.0,59,0.00,,,0.00,156.000000,,2013-04-14 16:13:00,
2013-04-14 10:22:00,21.0,9.0,-100.00,SW,232,9.0,18.0,59,0.00,,,0.00,156.000000,,2013-04-14 16:22:00,
2013-04-14 10:33:00,21.0,9.0,-100.00,SW,232,9.0,18.0,59,0.00,,,0.00,156.000000,,2013-04-14 16:33:00,
2013-04-14 10:43:00,21.0,9.0,-100.00,SW,232,9.0,18.0,59,0.00,,,0.00,156.000000,,2013-04-14 16:43:00,
2013-04-14 10:53:00,21.0,9.0,-100.00,SW,232,9.0,18.0,59,0.00,,,0.00,156.000000,,2013-04-14 16:53:00,
2013-04-14 11:13:00,24.0,7.0,-100.00,SW,218,12.0,24.0,47,0.01,,,0.01,264.000000,,2013-04-14 17:13:00,
2013-04-14 11:22:00,24.0,7.0,-100.00,SW,218,12.0,24.0,47,0.01,,,0.01,264.000000,,2013-04-14 17:22:00,
2013-04-14 11:32:00,24.0,7.0,-100.00,SW,218,12.0,24.0,47,0.01,,,0.01,264.000000,,2013-04-14 17:32:00,
2013-04-14 11:42:00,24.0,7.0,-100.00,SW,218,12.0,24.0,47,0.01,,,0.01,264.000000,,2013-04-14 17:42:00,
2013-04-14 11:52:00,24.0,7.0,-100.00,SW,218,12.0,24.0,47,0.01,,,0.01,264.000000,,2013-04-14 17:52:00,
2013-04-14 12:12:00,26.0,3.0,-100.00,WSW,249,10.0,28.0,37,0.15,,,0.16,406.000000,,2013-04-14 18:12:00,
2013-04-14 12:22:00,26.0,3.0,-100.00,WSW,249,10.0,28.0,37,0.15,,,0.16,406.000000,,2013-04-14 18:22:00,
2013-04-14 12:32:00,26.0,3.0,-100.00,WSW,249,10.0,28.0,37,0.15,,,0.16,406.000000,,2013-04-14 18:32:00,
2013-04-14 12:43:00,26.0,3.0,-100.00,WSW,249,10.0,28.0,37,0.15,,,0.16,406.000000,,2013-04-14 18:43:00,
2013-04-14 12:52:00,26.0,3.0,-100.00,WSW,249,10.0,28.0,37,0.15,,,0.16,406.000000,,2013-04-14 18:52:00,
2013-04-14 13:22:00,26.0,8.0,-100.00,SW,229,10.0,28.0,46,0.01,,,0.17,773.000000,,2013-04-14 19:22:00,
2013-04-14 13:32:00,26.0,8.0,-100.00,SW,229,10.0,28.0,46,0.01,,,0.17,773.000000,,2013-04-14 19:32:00,
2013-04-14 13:42:00,26.0,8.0,-100.00,SW,229,10.0,28.0,46,0.01,,,0.17,773.000000,,2013-04-14 19:42:00,
2013-04-14 13:52:00,26.0,8.0,-100.00,SW,229,10.0,28.0,46,0.01,,,0.17,773.000000,,2013-04-14 19:52:00,
2013-04-14 14:13:00,28.0,7.0,-100.00,SW,228,9.0,19.0,40,0.00,,,0.17,785.000000,,2013-04-14 20:13:00,
2013-04-14 14:22:00,28.0,7.0,-100.00,SW,228,9.0,19.0,40,0.00,,,0.17,785.000000,,2013-04-14 20:22:00,
2013-04-14 14:33:00,28.0,7.0,-100.00,SW,228,9.0,19.0,40,0.00,,,0.17,785.000000,,2013-04-14 20:33:00,
2013-04-14 14:42:00,28.0,7.0,-100.00,SW,228,9.0,19.0,40,0.00,,,0.17,785.000000,,2013-04-14 20:42:00,
2013-04-14 14:52:00,28.0,7.0,-100.00,SW,228,9.0,19.0,40,0.00,,,0.17,785.000000,,2013-04-14 20:52:00,
2013-04-14 15:23:00,29.0,9.0,-100.00,West,260,9.0,19.0,42,0.00,,,0.17,779.000000,,2013-04-14 21:23:00,
2013-04-14 15:33:00,29.0,9.0,-100.00,West,260,9.0,19.0,42,0.00,,,0.17,779.000000,,2013-04-14 21:33:00,
2013-04-14 15:43:00,29.0,9.0,-100.00,West,260,9.0,19.0,42,0.00,,,0.17,779.000000,,2013-04-14 21:43:00,
2013-04-14 15:53:00,29.0,9.0,-100.00,West,260,9.0,19.0,42,0.00,,,0.17,779.000000,,2013-04-14 21:53:00,
2013-04-14 16:13:00,28.0,8.0,-100.00,WSW,244,10.0,26.0,43,0.00,,,0.17,699.000000,,2013-04-14 22:13:00,
2013-04-14 16:23:00,28.0,8.0,-100.00,WSW,244,10.0,26.0,43,0.00,,,0.17,699.000000,,2013-04-14 22:23:00,
2013-04-14 16:33:00,28.0,8.0,-100.00,WSW,244,10.0,26.0,43,0.00,,,0.17,699.000000,,2013-04-14 22:33:00,
2013-04-14 16:43:00,28.0,8.0,-100.00,WSW,244,10.0,26.0,43,0.00,,,0.17,699.000000,,2013-04-14 22:43:00,
2013-04-14 16:52:00,28.0,8.0,-100.00,WSW,244,10.0,26.0,43,0.00,,,0.17,699.000000,,2013-04-14 22:52:00,
2013-04-14 17:22:00,28.0,6.0,-100.00,WSW,246,11.0,25.0,39,0.00,,,0.17,551.000000,,2013-04-14 23:22:00,
2013-04-14 17:33:00,28.0,6.0,-100.00,WSW,246,11.0,25.0,39,0.00,,,0.17,551.000000,,2013-04-14 23:33:00,
2013-04-14 17:43:00,28.0,6.0,-100.00,WSW,246,11.0,25.0,39,0.00,,,0.17,551.000000,,2013-04-14 23:43:00,
2013-04-14 17:52:00,28.0,6.0,-100.00,WSW,246,11.0,25.0,39,0.00,,,0.17,551.000000,,2013-04-14 23:52:00,
2013-04-14 18:23:00,27.0,9.0,-100.00,SW,221,15.0,23.0,45,0.00,,,0.17,345.000000,,2013-04-15 00:23:00,
2013-04-14 18:33:00,27.0,9.0,-100.00,SW,221,15.0,23.0,45,0.00,,,0.17,345.000000,,2013-04-15 00:33:00,
2013-04-14 18:42:00,27.0,9.0,-100.00,SW,221,15.0,23.0,45,0.00,,,0.17,345.000000,,2013-04-15 00:42:00,
2013-04-14 18:52:00,27.0,9.0,-100.00,SW,221,15.0,23.0,45,0.00,,,0.17,345.000000,,2013-04-15 00:52:00,
2013-04-14 19:23:00,24.0,11.0,-100.00,SSW,200,12.0,25.0,58,0.00,,,0.17,127.000000,,2013-04-15 01:23:00,
2013-04-14 19:32:00,24.0,11.0,-100.00,SSW,200,12.0,25.0,58,0.00,,,0.17,127.000000,,2013-04-15 01:32:00,
2013-04-14 19:42:00,24.0,11.0,-100.00,SSW,200,12.0,25.0,58,0.00,,,0.17,127.000000,,2013-04-15 01:42:00,
2013-04-14 19:52:00,24.0,11.0,-100.00,SSW,200,12.0,25.0,58,0.00,,,0.17,127.000000,,2013-04-15 01:52:00,
2013-04-14 20:22:00,23.0,13.0,-100.00,South,187,8.0,17.0,64,0.00,,,0.17,12.000000,,2013-04-15 02:22:00,
2013-04-14 20:32:00,23.0,13.0,-100.00,South,187,8.0,17.0,64,0.00,,,0.17,12.000000,,2013-04-15 02:32:00,
2013-04-14 20:42:00,23.0,13.0,-100.00,South,187,8.0,17.0,64,0.00,,,0.17,12.000000,,2013-04-15 02:42:00,
2013-04-14 20:52:00,23.0,13.0,-100.00,South,187,8.0,17.0,64,0.00,,,0.17,12.000000,,2013-04-15 02:52:00,
2013-04-14 20:54:00,25.0,11.0,-100.00,SSW,192,7.0,14.0,55,0.00,,,0.17,0.000000,,2013-04-15 02:54:00,
2013-04-14 21:12:00,25.0,11.0,-100.00,SSW,192,7.0,14.0,55,0.00,,,0.17,0.000000,,2013-04-15 03:12:00,
2013-04-14 21:22:00,25.0,11.0,-100.00,SSW,192,7.0,14.0,55,0.00,,,0.17,0.000000,,2013-04-15 03:22:00,
2013-04-14 21:33:00,25.0,11.0,-100.00,SSW,192,7.0,14.0,55,0.00,,,0.17,0.000000,,2013-04-15 03:33:00,
2013-04-14 21:43:00,25.0,11.0,-100.00,SSW,192,7.0,14.0,55,0.00,,,0.17,0.000000,,2013-04-15 03:43:00,
2013-04-14 22:13:00,26.0,13.0,-100.00,South,176,7.0,13.0,58,0.00,,,0.17,0.000000,,2013-04-15 04:13:00,
2013-04-14 22:23:00,26.0,13.0,-100.00,South,176,7.0,13.0,58,0.00,,,0.17,0.000000,,2013-04-15 04:23:00,
2013-04-14 22:33:00,26.0,13.0,-100.00,South,176,7.0,13.0,58,0.00,,,0.17,0.000000,,2013-04-15 04:33:00,
2013-04-14 22:42:00,26.0,13.0,-100.00,South,176,7.0,13.0,58,0.00,,,0.17,0.000000,,2013-04-15 04:42:00,
2013-04-14 22:52:00,26.0,13.0,-100.00,South,176,7.0,13.0,58,0.00,,,0.17,0.000000,,2013-04-15 04:52:00,
2013-04-14 23:12:00,26.0,15.0,-100.00,SE,144,3.0,9.0,62,0.00,,,0.17,0.000000,,2013-04-15 05:12:00,
2013-04-14 23:23:00,26.0,15.0,-100.00,SE,144,3.0,9.0,62,0.00,,,0.17,0.000000,,2013-04-15 05:23:00,
2013-04-14 23:33:00,26.0,15.0,-100.00,SE,144,3.0,9.0,62,0.00,,,0.17,0.000000,,2013-04-15 05:33:00,
2013-04-14 23:42:00,26.0,15.0,-100.00,SE,144,3.0,9.0,62,0.00,,,0.17,0.000000,,2013-04-15 05:42:00,
2013-04-14 23:52:00,26.0,15.0,-100.00,SE,144,3.0,9.0,62,0.00,,,0.17,0.000000,,2013-04-15 05:52:00,